DW9033 Weather Reports


time (UTC)temp
F
wind
direction
speed
knots
gust
knots
rain 1hr
in
rain 24hr
in
rain mn
in
humidity
%
barometer
mb
20260906051501 71 212 0.0 0.0 0.00 0.00 0.00 95 1010.6
20260906050101 71 212 0.0 0.9 0.00 0.00 0.00 94 1010.5
20260906044608 71 211 0.0 0.9 0.00 0.00 0.00 94 1010.8
20260906043059 72 212 0.0 0.0 0.00 0.00 0.00 93 1010.5
20260906041559 72 281 0.0 0.9 0.00 0.00 0.00 94 1010.3
20260906040135 73 279 0.9 2.6 0.00 0.00 0.00 94 1010.6
20260906034610 73 259 0.0 0.9 0.00 0.00 0.00 93 1010.8
20260906033106 73 259 0.0 1.7 0.00 0.00 0.00 93 1011.0
20260906031546 73 248 0.0 0.9 0.00 0.00 0.00 92 1011.0
20260906024550 74 244 0.0 0.0 0.00 0.00 0.00 92 1010.9
20260906023045 74 249 0.0 3.5 0.00 0.00 0.00 92 1010.7
20260906021543 74 127 0.0 1.7 0.00 0.00 0.00 93 1010.3
20260906020042 74 256 0.0 0.9 0.00 0.00 0.00 92 1010.1
20260906014544 74 275 0.0 1.7 0.00 0.00 0.00 92 1010.2
20260906013042 74 341 0.0 0.9 0.00 0.00 0.00 91 1010.2
20260906011542 74 341 0.0 1.7 0.00 0.00 0.00 91 1010.2
20260906010041 75 278 0.0 0.0 0.00 0.00 0.00 90 1010.0
20260906004541 75 278 0.0 0.9 0.00 0.00 0.00 89 1009.7
20260906003040 75 278 0.0 0.9 0.00 0.00 0.00 88 1009.7
20260906001532 76 273 0.0 1.7 0.00 0.00 0.00 87 1009.6
20260906000028 77 19 0.0 0.0 0.00 0.00 0.00 84 1009.3
20260905234527 79 19 0.0 0.0 0.00 0.00 0.00 82 1009.2
20260905233025 80 326 0.0 1.7 0.00 0.00 0.00 79 1009.1
20260905231525 81 192 0.0 0.9 0.00 0.00 0.00 76 1009.2
20260905230024 83 191 0.0 0.9 0.00 0.00 0.00 73 1009.3
20260905224557 83 280 0.0 2.6 0.00 0.00 0.00 70 1009.2
20260905223023 82 188 0.0 1.7 0.00 0.00 0.00 76 1009.2
20260905221505 82 130 0.0 1.7 0.00 0.00 0.00 76 1009.3
20260905220003 80 136 0.0 3.5 0.00 0.00 0.00 78 1009.4
20260905214552 81 99 0.0 2.6 0.00 0.00 0.00 77 1009.5
20260905213055 81 128 0.9 3.5 0.00 0.00 0.00 74 1009.7
20260905211550 81 163 0.0 1.7 0.00 0.00 0.00 73 1009.7
20260905210059 81 77 0.9 2.6 0.00 0.00 0.00 73 1010.0
20260905204549 81 329 0.0 3.5 0.00 0.00 0.00 70 1009.9
20260905203049 80 280 0.9 4.3 0.00 0.00 0.00 73 1009.6
20260905201549 78 267 1.7 4.3 0.00 0.00 0.00 74 1010.1
20260905200048 78 277 1.7 5.2 0.00 0.00 0.00 75 1010.3
20260905193035 76 306 0.9 2.6 0.00 0.00 0.00 83 1009.8
20260905191535 76 68 0.9 7.0 0.00 0.00 0.00 79 1010.7
20260905190034 82 293 2.6 14.8 0.00 0.00 0.00 64 1011.2
20260905184546 88 267 3.5 8.7 0.00 0.00 0.00 63 1010.3
20260905183033 91 266 0.0 1.7 0.00 0.00 0.00 62 1009.8
20260905181532 94 110 0.0 1.7 0.00 0.00 0.00 55 1010.1
20260905180037 95 282 0.0 5.2 0.00 0.00 0.00 52 1010.2
20260905174512 97 311 1.7 5.2 0.00 0.00 0.00 48 1010.0
20260905173010 98 87 0.0 2.6 0.00 0.00 0.00 48 1010.3
20260905171552 97 278 0.9 2.6 0.00 0.00 0.00 49 1010.4
20260905170100 97 65 0.9 2.6 0.00 0.00 0.00 49 1010.6
20260905164532 95 311 0.9 4.3 0.00 0.00 0.00 52 1011.0
20260905163030 96 28 0.9 2.6 0.00 0.00 0.00 51 1011.3
20260905161527 95 331 0.0 2.6 0.00 0.00 0.00 56 1011.3
20260905160025 94 217 0.9 2.6 0.00 0.00 0.00 59 1011.3
20260905154522 94 288 0.0 2.6 0.00 0.00 0.00 59 1011.5
20260905153021 92 161 0.9 5.2 0.00 0.00 0.00 60 1011.6
20260905151521 92 149 0.0 2.6 0.00 0.00 0.00 61 1011.6
20260905150016 91 137 0.9 3.5 0.00 0.00 0.00 62 1011.5
20260905144512 91 115 1.7 3.5 0.00 0.00 0.00 62 1011.6
20260905143001 90 287 0.0 1.7 0.00 0.00 0.00 65 1011.8
20260905141604 89 110 0.9 1.7 0.00 0.00 0.00 67 1011.8
20260905140055 88 145 0.0 2.6 0.00 0.00 0.00 70 1011.9
20260905134554 86 153 0.0 1.7 0.00 0.00 0.00 73 1012.0
20260905133048 85 273 0.0 1.7 0.00 0.00 0.00 75 1012.1
20260905131543 83 192 0.9 2.6 0.00 0.00 0.00 78 1012.2
20260905130039 82 159 0.0 1.7 0.00 0.00 0.00 80 1012.2
20260905124518 80 279 0.9 2.6 0.00 0.00 0.00 82 1012.1
20260905123114 79 279 0.0 1.7 0.00 0.00 0.00 85 1012.0
20260905121559 77 269 0.9 2.6 0.00 0.00 0.00 87 1012.0
20260905120058 76 257 0.0 0.9 0.00 0.00 0.00 91 1011.9
20260905114559 74 254 0.0 2.6 0.00 0.00 0.00 93 1011.8
20260905113049 73 244 0.0 1.7 0.00 0.00 0.00 95 1011.6
20260905111546 73 269 0.9 2.6 0.00 0.00 0.00 96 1011.5
20260905110044 72 273 0.0 0.0 0.00 0.00 0.00 96 1011.1
20260905104545 72 273 0.0 0.0 0.00 0.00 0.00 96 1011.1
20260905103041 72 273 0.0 0.0 0.00 0.00 0.00 96 1010.8
20260905101532 72 273 0.0 0.9 0.00 0.00 0.00 96 1010.8
20260905100058 72 273 0.0 0.0 0.00 0.00 0.00 96 1010.8
20260905094532 73 273 0.0 0.0 0.00 0.00 0.00 96 1010.7
20260905093025 73 273 0.0 0.0 0.00 0.00 0.00 96 1010.7
20260905091524 73 273 0.0 0.0 0.00 0.00 0.00 95 1010.8
20260905090023 73 273 0.0 0.9 0.00 0.00 0.00 95 1010.8
20260905084522 73 273 0.0 0.0 0.00 0.00 0.00 96 1010.8
20260905083020 73 273 0.0 0.9 0.00 0.00 0.00 95 1010.9
20260905081508 73 273 0.0 0.9 0.00 0.00 0.00 95 1011.1
20260905080006 73 273 0.0 0.0 0.00 0.00 0.00 95 1011.3
20260905074505 73 273 0.0 0.0 0.00 0.00 0.00 95 1011.4
20260905073007 73 273 0.0 0.0 0.00 0.00 0.00 94 1011.5
20260905071502 73 273 0.0 0.0 0.00 0.00 0.00 94 1011.6
20260905070002 74 273 0.0 0.0 0.00 0.00 0.00 94 1011.7
20260905064502 74 273 0.0 0.0 0.00 0.00 0.00 93 1011.8
20260905063104 74 273 0.0 0.0 0.00 0.00 0.00 93 1012.0
20260905061700 74 273 0.0 0.0 0.00 0.00 0.00 93 1011.8
20260905060100 75 273 0.0 0.0 0.00 0.00 0.00 92 1011.9
20260905054637 75 273 0.0 0.9 0.00 0.00 0.00 92 1012.2
20260905053048 75 273 0.0 0.9 0.00 0.00 0.00 93 1012.4